Buffalo, MN

8:45 PM CST on January 19, 2017 (GMT -0600)
Buffalo

Weather History for KCFE - August, 2014

Change the Weather History Date:

Monday, August 18, 2014

  Actual Average (KMIC) Record (KMIC)
Temperature  
Mean Temperature 75 °F -  
Max Temperature 83 °F 77 °F 97 °F (2003)
Min Temperature 67 °F 57 °F 48 °F (2002)
Cooling Degree Days 10    
Growing Degree Days 25 (Base 50)    
Moisture  
Dew Point 65 °F    
Average Humidity 76    
Maximum Humidity 95    
Minimum Humidity 47    
Precipitation  
Precipitation 0.00 in - - ()
Sea Level Pressure  
Sea Level Pressure 29.75 in    
Wind  
Wind Speed 3 mph (WSW)    
Max Wind Speed 10 mph    
Max Gust Speed -    
Visibility 7 miles    
Events Fog , Rain    
Averages and records for this station are not official NWS values.
T = Trace of Precipitation, MM = Missing Value Source: NWS Daily Summary

Daily Weather History Graph

Daily Weather History Graph

Search for Another Location

Airport or City:

Trip Planner

Search our weather history database for the weather conditions in past years. The results will help you decide how hot, cold, wet, or windy it might be!

Date:

Astronomy

Aug. 18, 2014 Rise Set
Actual Time 6:20 AM CDT 8:17 PM CDT
Civil Twilight 5:48 AM CDT 8:48 PM CDT
Nautical Twilight 5:09 AM CDT 9:27 PM CDT
Astronomical Twilight 4:26 AM CDT 10:09 PM CDT
Moon 12:24 AM CDT (8/18) 3:25 PM CDT (8/18)
Length of Visible Light 15h 00m
Length of Day
13h 56m
Last Quarter, 38% of the Moon is Illuminated
Aug 18
Last Quarter
Aug 25
New
Sep 2
First Quarter
Sep 8
Full
Sep 15
Last Quarter

Hourly Weather History & Observations

Time (CDT) Temp. Heat Index Dew Point Humidity Pressure Visibility Wind Dir Wind Speed Gust Speed Precip Events Conditions
12:15 AM 69.8 °F - 66.4 °F 89% 29.86 in 10.0 mi Calm Calm - N/A   Overcast
12:35 AM 69.4 °F - 66.2 °F 89% 29.86 in 7.0 mi Calm Calm - N/A   Overcast
12:55 AM 69.3 °F - 66.2 °F 90% 29.85 in 7.0 mi Calm Calm - N/A   Overcast
1:15 AM 69.1 °F - 66.0 °F 90% 29.86 in 7.0 mi Calm Calm - N/A   Overcast
1:35 AM 69.4 °F - 66.2 °F 89% 29.85 in 7.0 mi Calm Calm - N/A   Overcast
1:55 AM 69.3 °F - 66.2 °F 90% 29.84 in 7.0 mi Calm Calm - N/A   Overcast
2:15 AM 69.1 °F - 66.2 °F 91% 29.83 in 7.0 mi Calm Calm - N/A   Overcast
2:35 AM 69.1 °F - 66.2 °F 91% 29.82 in 5.0 mi Calm Calm - N/A   Overcast
2:55 AM 69.1 °F - 66.2 °F 91% 29.81 in 5.0 mi Calm Calm - N/A   Overcast
3:16 AM 69.1 °F - 66.4 °F 91% 29.81 in 5.0 mi Calm Calm - N/A   Overcast
3:35 AM 69.1 °F - 66.4 °F 91% 29.80 in 7.0 mi Calm Calm - N/A   Overcast
3:55 AM 69.1 °F - 66.4 °F 91% 29.79 in 7.0 mi SE 3.5 mph - N/A   Overcast
4:16 AM 69.1 °F - 66.2 °F 91% 29.81 in 10.0 mi South 4.6 mph - N/A   Overcast
4:35 AM 68.9 °F - 66.2 °F 91% 29.81 in 4.0 mi South 5.8 mph - N/A   Overcast
4:55 AM 68.2 °F - 65.8 °F 92% 29.81 in 4.0 mi Calm Calm - N/A   Overcast
5:15 AM 68.2 °F - 66.2 °F 93% 29.81 in 2.5 mi SSW 3.5 mph - N/A   Overcast
5:35 AM 68.2 °F - 66.2 °F 93% 29.80 in 4.0 mi Calm Calm - N/A   Overcast
5:55 AM 68.2 °F - 66.2 °F 93% 29.80 in 0.5 mi Calm Calm - N/A Fog Fog
6:15 AM 68.2 °F - 66.2 °F 93% 29.80 in 0.2 mi Calm Calm - N/A Fog Fog
6:35 AM 68.0 °F - 66.2 °F 94% 29.79 in 0.5 mi Calm Calm - N/A Fog Fog
6:55 AM 68.0 °F - 65.8 °F 93% 29.79 in 0.2 mi Calm Calm - N/A Fog Fog
7:15 AM 67.5 °F - 65.7 °F 94% 29.80 in 0.2 mi Calm Calm - N/A Fog Fog
7:35 AM 67.6 °F - 65.8 °F 94% 29.79 in 0.2 mi SSE 3.5 mph - N/A Fog Fog
7:55 AM 67.6 °F - 65.8 °F 94% 29.80 in 0.2 mi Calm Calm - N/A Fog Fog
8:15 AM 67.6 °F - 66.0 °F 95% 29.79 in 0.2 mi Calm Calm - N/A Fog Fog
8:35 AM 68.0 °F - 66.4 °F 95% 29.79 in 0.8 mi South 3.5 mph - N/A   Overcast
8:55 AM 68.2 °F - 66.6 °F 95% 29.79 in 1.2 mi Calm Calm - N/A   Overcast
9:15 AM 68.5 °F - 67.1 °F 95% 29.79 in 1.5 mi SW 3.5 mph - N/A   Overcast
9:35 AM 69.1 °F - 67.5 °F 95% 29.79 in 2.0 mi SSW 3.5 mph - N/A   Overcast
9:55 AM 69.4 °F - 67.6 °F 94% 29.79 in 2.5 mi SSW 3.5 mph - N/A   Overcast
10:15 AM 70.3 °F - 68.5 °F 94% 29.78 in 2.0 mi SSW 4.6 mph - N/A   Overcast
10:35 AM 71.1 °F - 69.1 °F 93% 29.78 in 10.0 mi WSW 3.5 mph - N/A   Overcast
10:55 AM 74.1 °F - 68.5 °F 83% 29.78 in 10.0 mi West 9.2 mph - N/A   Mostly Cloudy
11:15 AM 76.5 °F - 66.9 °F 72% 29.78 in 10.0 mi WSW 8.1 mph - N/A   Scattered Clouds
11:35 AM 77.5 °F - 66.6 °F 69% 29.77 in 10.0 mi SW 5.8 mph - N/A   Clear
11:55 AM 79.2 °F - 66.9 °F 66% 29.77 in 10.0 mi WSW 6.9 mph - N/A   Scattered Clouds
12:15 PM 79.7 °F - 65.7 °F 62% 29.77 in 10.0 mi WSW 8.1 mph - N/A   Scattered Clouds
12:35 PM 79.9 °F - 64.8 °F 60% 29.76 in 10.0 mi WSW 6.9 mph - N/A   Scattered Clouds
12:55 PM 80.8 °F 81.9 °F 62.2 °F 53% 29.76 in 10.0 mi SW 8.1 mph - N/A   Scattered Clouds
1:15 PM 81.5 °F 82.5 °F 62.4 °F 52% 29.74 in 10.0 mi West 6.9 mph - N/A   Clear
1:35 PM 82.0 °F 82.4 °F 59.7 °F 47% 29.75 in 10.0 mi WSW 8.1 mph - N/A   Clear
1:55 PM 82.8 °F 83.3 °F 61.0 °F 48% 29.74 in 10.0 mi SW 5.8 mph - N/A   Scattered Clouds
2:15 PM 82.4 °F 82.9 °F 61.0 °F 48% 29.74 in 10.0 mi SSW 10.4 mph - N/A   Scattered Clouds
2:35 PM 81.5 °F 82.1 °F 60.4 °F 49% 29.73 in 10.0 mi SW 6.9 mph - N/A   Scattered Clouds
2:55 PM 83.3 °F 83.9 °F 61.7 °F 48% 29.72 in 10.0 mi SSW 5.8 mph - N/A   Scattered Clouds
3:15 PM 83.5 °F 83.9 °F 61.5 °F 47% 29.72 in 10.0 mi WSW 6.9 mph - N/A   Scattered Clouds
3:35 PM 82.0 °F 82.8 °F 61.5 °F 50% 29.71 in 10.0 mi WSW 6.9 mph - N/A   Scattered Clouds
3:55 PM 81.5 °F 82.8 °F 63.1 °F 54% 29.71 in 10.0 mi WSW 8.1 mph - N/A   Mostly Cloudy
4:15 PM 79.7 °F - 64.0 °F 59% 29.71 in 10.0 mi West 10.4 mph - N/A Rain Light Rain
4:35 PM 76.1 °F - 66.6 °F 72% 29.70 in 10.0 mi West 4.6 mph - N/A Rain Light Rain
4:55 PM 77.9 °F - 64.4 °F 63% 29.69 in 10.0 mi West 4.6 mph - N/A   Mostly Cloudy
5:15 PM 79.7 °F - 65.3 °F 61% 29.68 in 10.0 mi WSW 5.8 mph - N/A   Mostly Cloudy
5:35 PM 80.6 °F 82.7 °F 65.8 °F 61% 29.67 in 10.0 mi West 4.6 mph - N/A   Scattered Clouds
5:55 PM 81.1 °F 82.8 °F 64.4 °F 57% 29.67 in 10.0 mi WSW 5.8 mph - N/A   Scattered Clouds
6:15 PM 81.5 °F 82.8 °F 63.3 °F 54% 29.67 in 10.0 mi WSW 4.6 mph - N/A   Scattered Clouds
6:35 PM 81.5 °F 82.9 °F 63.9 °F 55% 29.66 in 10.0 mi WSW 5.8 mph - N/A   Clear
6:55 PM 80.2 °F 82.0 °F 64.6 °F 59% 29.66 in 10.0 mi West 4.6 mph - N/A   Scattered Clouds
7:15 PM 79.7 °F - 65.3 °F 61% 29.66 in 10.0 mi WSW 5.8 mph - N/A   Overcast
7:35 PM 79.7 °F - 64.2 °F 59% 29.65 in 10.0 mi SW 4.6 mph - N/A   Mostly Cloudy
7:55 PM 78.1 °F - 63.9 °F 61% 29.65 in 10.0 mi SW 5.8 mph - N/A   Scattered Clouds
8:15 PM 76.5 °F - 62.6 °F 62% 29.66 in 10.0 mi WSW 6.9 mph - N/A   Clear
8:35 PM 75.4 °F - 63.0 °F 65% 29.67 in 10.0 mi West 3.5 mph - N/A   Clear
8:55 PM 74.3 °F - 63.5 °F 69% 29.68 in 10.0 mi West 3.5 mph - N/A   Clear
9:15 PM 73.4 °F - 63.3 °F 71% 29.68 in 10.0 mi West 3.5 mph - N/A   Clear
9:35 PM 72.7 °F - 62.6 °F 71% 29.69 in 10.0 mi West 5.8 mph - N/A   Clear
9:55 PM 72.5 °F - 62.8 °F 71% 29.69 in 10.0 mi West 5.8 mph - N/A   Clear
10:15 PM 71.1 °F - 62.6 °F 75% 29.69 in 10.0 mi West 5.8 mph - N/A   Clear
10:35 PM 70.3 °F - 62.8 °F 77% 29.69 in 10.0 mi West 4.6 mph - N/A   Clear
11:15 PM 69.1 °F - 62.6 °F 80% 29.69 in 10.0 mi West 3.5 mph - N/A   Clear
11:35 PM 69.1 °F - 62.6 °F 80% 29.69 in 10.0 mi West 5.8 mph - N/A   Clear
11:55 PM 69.1 °F - 62.8 °F 80% 29.70 in 10.0 mi WNW 3.5 mph - N/A   Clear